Content
SEND FEEDBACK

Daily
Averages
Monthly
Summary
United States of America

NEW YORK - UPPER EAST SIDE, NEW YORK


Home > North America > United States > New York
Elevation: 132 feet     Latitude: 40 47N     Longitude: 073 58W

WEATHER
 
SELECT A DAY
Number of Records: 151,321;   Date Range: 11/1/95 - 10/24/14
 
SHARE

PRINT THIS DATA

[ ← Previous Day ]
WEATHER ALMANAC - FEBRUARY 19, 2013
[ Next Day → ]
[ °C ]   °F
Weather ElementAverageHighLow
Temperature41.9 °F48 °F (12:51 pm)34 °F (1:51 am)
Dewpoint30.1 °F42.8 °F (4:48 pm)10 °F (1:51 am)
Humidity65.3 %89 % (3:51 pm)37 % (1:51 am)
Barometer29.87 in30.17 in (1:51 am)29.67 in (7:51 pm)
Wind Speed6.3 mph11.5 mph (9:51 pm)
Wind Gust24.2 mph (5:51 pm)
Weather ElementAverage
Visibility9 mi
Wind DirectionE (89.3 °)

Weather ElementTotal
Precipitation0.16 in
Heating Degree Days24 (Base 65)
Averaged from 27 records on February 19, 2013
WEATHER CONDITIONS BREAKOUT
WIND DIRECTION BREAKOUT
WEATHER BY HOUR - FEBRUARY 19, 2013
[ °C ]   °F
Local TimeTemperatureDewpointHumidityBarometerVisibilityWind DirectionWind SpeedGust SpeedPrecipitationEventsConditions
1:51 AM34.0 °F10.0 °F37 %30.17 in10.0 miVariable6.9 mph17.3 mphClear
2:51 AM34.0 °F10.9 °F38 %30.14 in10.0 miSE (130°)3.5 mphClear
3:51 AM35.1 °F14.0 °F42 %30.12 in10.0 miVariable4.6 mphClear
4:51 AM35.1 °F16.0 °F46 %30.12 in10.0 miVariable4.6 mphClear
5:51 AM36.0 °F18.0 °F48 %30.08 in10.0 miVariable3.5 mphClear
6:51 AM36.0 °F19.0 °F50 %30.06 in10.0 miVariable3.5 mphClear
7:51 AM37.9 °F21.9 °F53 %30.06 in10.0 miSouth (180°)5.8 mphClear
8:51 AM39.9 °F23.0 °F51 %30.03 in10.0 miSouth (190°)6.9 mphClear
9:51 AM42.1 °F23.0 °F47 %30.00 in10.0 miSouth (180°)5.8 mphClear
10:51 AM44.1 °F24.1 °F45 %29.97 in10.0 miVariable5.8 mphClear
11:51 AM46.9 °F28.9 °F50 %29.94 in10.0 miVariable3.5 mphClear
12:51 PM48.0 °F28.9 °F48 %29.92 in10.0 miWSW (250°)10.4 mph17.3 mph0.00 inRainLight Rain
1:51 PM44.1 °F37.0 °F76 %29.86 in7.0 miSouth (190°)8.1 mph0.03 inRainLight Rain
2:51 PM44.1 °F39.0 °F82 %29.82 in6.0 miVariable3.5 mph0.03 inRainLight Rain
3:51 PM44.1 °F41.0 °F89 %29.76 in7.0 miSouth (180°)6.9 mph0.03 inRainLight Rain
4:03 PM44.1 °F41.0 °F89 %29.77 in8.0 miVariable4.6 mph0.00 inOvercast
4:48 PM46.4 °F42.8 °F87 %29.74 in7.0 miVariable5.8 mph0.01 inRainLight Rain
4:51 PM46.0 °F42.1 °F86 %29.72 in6.0 miVariable6.9 mph0.01 inRainLight Rain
5:11 PM46.0 °F42.1 °F86 %29.74 in5.0 miVariable4.6 mph0.01 inRainLight Rain
5:51 PM46.0 °F42.1 °F86 %29.71 in8.0 miWSW (240°)9.2 mph24.2 mph0.03 inRainLight Rain
7:51 PM45.0 °F41.0 °F86 %29.67 in10.0 miVariable3.5 mph0.01 inOvercast
8:43 PM45.0 °F39.9 °F82 %29.70 in10.0 miVariable6.9 mph17.3 mph0.00 inOvercast
8:51 PM44.1 °F39.9 °F85 %29.68 in10.0 miVariable5.8 mph0.00 inOvercast
9:04 PM44.1 °F39.0 °F82 %29.70 in10.0 miNorthOvercast
9:51 PM43.0 °F35.1 °F74 %29.69 in10.0 miWNW (290°)11.5 mph20.7 mphMostly Cloudy
10:51 PM41.0 °F28.9 °F62 %29.70 in10.0 miWNW (300°)9.2 mph23.0 mphPartly Cloudy
11:51 PM37.9 °F23.0 °F55 %29.72 in10.0 miWest (280°)11.5 mph21.9 mphClear
Hourly data recorded from KNYC, located miles away from New York - Upper East Side, New York







STORIES FROM OUR PARTNERS